Year,Month,Day,Hour,Minute,Value (Times are PST for temperature in C)
2015,12,10,00,00,8.30
2015,12,10,00,01,8.30
2015,12,10,00,02,8.30
2015,12,10,00,03,8.30
2015,12,10,00,04,8.30
2015,12,10,00,05,8.30
2015,12,10,00,06,8.30
2015,12,10,00,07,8.30
2015,12,10,00,08,8.30
2015,12,10,00,09,8.30
2015,12,10,00,10,8.30
2015,12,10,00,11,8.30
2015,12,10,00,12,8.30
2015,12,10,00,13,8.30
2015,12,10,00,14,8.30
2015,12,10,00,15,8.30
2015,12,10,00,16,8.30
2015,12,10,00,17,8.30
2015,12,10,00,18,8.30
2015,12,10,00,19,8.30
2015,12,10,00,20,8.30
2015,12,10,00,21,8.30
2015,12,10,00,22,8.30
2015,12,10,00,23,8.30
2015,12,10,00,24,8.30
2015,12,10,00,25,8.30
2015,12,10,00,26,8.30
2015,12,10,00,27,8.30
2015,12,10,00,28,8.30
2015,12,10,00,29,8.30
2015,12,10,00,30,8.30
2015,12,10,00,31,8.30
2015,12,10,00,32,8.30
2015,12,10,00,33,8.30
2015,12,10,00,34,8.30
2015,12,10,00,35,8.30
2015,12,10,00,36,8.20
2015,12,10,00,37,8.20
2015,12,10,00,38,8.20
2015,12,10,00,39,8.20
2015,12,10,00,40,8.20
2015,12,10,00,41,8.20
2015,12,10,00,42,8.20
2015,12,10,00,43,8.20
2015,12,10,00,44,8.20
2015,12,10,00,45,8.20
2015,12,10,00,46,8.20
2015,12,10,00,47,8.20
2015,12,10,00,48,8.10
2015,12,10,00,49,8.10
2015,12,10,00,50,8.10
2015,12,10,00,51,8.10
2015,12,10,00,52,8.10
2015,12,10,00,53,8.10
2015,12,10,00,54,8.10
2015,12,10,00,55,8.00
2015,12,10,00,56,8.00
2015,12,10,00,57,8.00
2015,12,10,00,58,8.00
2015,12,10,00,59,8.00
2015,12,10,01,00,7.90
2015,12,10,01,01,7.90
2015,12,10,01,02,7.90
2015,12,10,01,03,7.90
2015,12,10,01,04,7.90
2015,12,10,01,05,7.90
2015,12,10,01,06,7.90
2015,12,10,01,07,7.90
2015,12,10,01,08,7.90
2015,12,10,01,09,7.90
2015,12,10,01,10,7.90
2015,12,10,01,11,7.90
2015,12,10,01,12,7.90
2015,12,10,01,13,7.90
2015,12,10,01,14,7.90
2015,12,10,01,15,7.90
2015,12,10,01,16,7.90
2015,12,10,01,17,7.90
2015,12,10,01,18,7.90
2015,12,10,01,19,7.90
2015,12,10,01,20,7.90
2015,12,10,01,21,7.90
2015,12,10,01,22,7.80
2015,12,10,01,23,7.90
2015,12,10,01,24,7.90
2015,12,10,01,25,7.90
2015,12,10,01,26,7.90
2015,12,10,01,27,7.90
2015,12,10,01,28,7.90
2015,12,10,01,29,7.80
2015,12,10,01,30,7.80
2015,12,10,01,31,7.80
2015,12,10,01,32,7.80
2015,12,10,01,33,7.80
2015,12,10,01,34,7.80
2015,12,10,01,35,7.80
2015,12,10,01,36,7.80
2015,12,10,01,37,7.80
2015,12,10,01,38,7.80
2015,12,10,01,39,7.80
2015,12,10,01,40,7.80
2015,12,10,01,41,7.90
2015,12,10,01,42,7.90
2015,12,10,01,43,7.90
2015,12,10,01,44,7.90
2015,12,10,01,45,7.90
2015,12,10,01,46,7.90
2015,12,10,01,47,7.90
2015,12,10,01,48,7.90
2015,12,10,01,49,7.90
2015,12,10,01,50,7.90
2015,12,10,01,51,7.90
2015,12,10,01,52,7.90
2015,12,10,01,53,7.90
2015,12,10,01,54,7.90
2015,12,10,01,55,7.90
2015,12,10,01,56,7.90
2015,12,10,01,57,7.90
2015,12,10,01,58,7.90
2015,12,10,01,59,7.90
2015,12,10,02,00,7.90
2015,12,10,02,01,7.90
2015,12,10,02,02,7.90
2015,12,10,02,03,7.90
2015,12,10,02,04,7.90
2015,12,10,02,05,7.90
2015,12,10,02,06,7.90
2015,12,10,02,07,7.90
2015,12,10,02,08,7.90
2015,12,10,02,09,7.90
2015,12,10,02,10,7.90
2015,12,10,02,11,7.90
2015,12,10,02,12,7.90
2015,12,10,02,13,7.90
2015,12,10,02,14,7.90
2015,12,10,02,15,7.90
2015,12,10,02,16,7.90
2015,12,10,02,17,7.90
2015,12,10,02,18,7.90
2015,12,10,02,19,7.90
2015,12,10,02,20,7.90
2015,12,10,02,21,7.90
2015,12,10,02,22,7.90
2015,12,10,02,23,7.90
2015,12,10,02,24,7.90
2015,12,10,02,25,7.90
2015,12,10,02,26,7.90
2015,12,10,02,27,7.90
2015,12,10,02,28,7.90
2015,12,10,02,29,7.90
2015,12,10,02,30,7.90
2015,12,10,02,31,7.90
2015,12,10,02,32,7.90
2015,12,10,02,33,7.90
2015,12,10,02,34,7.90
2015,12,10,02,35,7.90
2015,12,10,02,36,7.90
2015,12,10,02,37,7.90
2015,12,10,02,38,7.90
2015,12,10,02,39,7.90
2015,12,10,02,40,7.90
2015,12,10,02,41,7.90
2015,12,10,02,42,7.90
2015,12,10,02,43,8.00
2015,12,10,02,44,8.00
2015,12,10,02,45,8.00
2015,12,10,02,46,8.00
2015,12,10,02,47,8.00
2015,12,10,02,48,8.00
2015,12,10,02,49,8.00
2015,12,10,02,50,8.00
2015,12,10,02,51,8.00
2015,12,10,02,52,8.00
2015,12,10,02,53,8.00
2015,12,10,02,54,8.00
2015,12,10,02,55,8.00
2015,12,10,02,56,8.10
2015,12,10,02,57,8.10
2015,12,10,02,58,8.10
2015,12,10,02,59,8.10
2015,12,10,03,00,8.10
2015,12,10,03,01,8.10
2015,12,10,03,02,8.10
2015,12,10,03,03,8.10
2015,12,10,03,04,8.10
2015,12,10,03,05,8.10
2015,12,10,03,06,8.10
2015,12,10,03,07,8.10
2015,12,10,03,08,8.10
2015,12,10,03,09,8.10
2015,12,10,03,10,8.10
2015,12,10,03,11,8.10
2015,12,10,03,12,8.10
2015,12,10,03,13,8.10
2015,12,10,03,14,8.10
2015,12,10,03,15,8.10
2015,12,10,03,16,8.10
2015,12,10,03,17,8.10
2015,12,10,03,18,8.10
2015,12,10,03,19,8.10
2015,12,10,03,20,8.10
2015,12,10,03,21,8.10
2015,12,10,03,22,8.10
2015,12,10,03,23,8.10
2015,12,10,03,24,8.10
2015,12,10,03,25,8.10
2015,12,10,03,26,8.10
2015,12,10,03,27,8.00
2015,12,10,03,28,8.00
2015,12,10,03,29,8.00
2015,12,10,03,30,8.00
2015,12,10,03,31,8.00
2015,12,10,03,32,8.00
2015,12,10,03,33,7.90
2015,12,10,03,34,7.90
2015,12,10,03,35,7.90
2015,12,10,03,36,7.90
2015,12,10,03,37,7.90
2015,12,10,03,38,7.90
2015,12,10,03,39,7.90
2015,12,10,03,40,7.90
2015,12,10,03,41,7.90
2015,12,10,03,42,7.90
2015,12,10,03,43,7.90
2015,12,10,03,44,7.90
2015,12,10,03,45,7.90
2015,12,10,03,49,7.90
2015,12,10,03,50,7.90
2015,12,10,03,51,7.90
2015,12,10,03,52,7.90
2015,12,10,03,53,8.00
2015,12,10,03,54,8.00
2015,12,10,03,55,8.00
2015,12,10,03,56,8.00
2015,12,10,03,57,8.10
2015,12,10,03,58,8.10
2015,12,10,03,59,8.10
2015,12,10,04,00,8.10
2015,12,10,04,01,8.10
2015,12,10,04,02,8.10
2015,12,10,04,03,8.10
2015,12,10,04,04,8.10
2015,12,10,04,05,8.10
2015,12,10,04,06,8.10
2015,12,10,04,07,8.10
2015,12,10,04,08,8.10
2015,12,10,04,09,8.10
2015,12,10,04,10,8.10
2015,12,10,04,11,8.00
2015,12,10,04,12,8.00
2015,12,10,04,13,8.00
2015,12,10,04,14,7.90
2015,12,10,04,15,7.90
2015,12,10,04,16,7.80
2015,12,10,04,17,7.80
2015,12,10,04,18,7.80
2015,12,10,04,19,7.70
2015,12,10,04,20,7.60
2015,12,10,04,21,7.60
2015,12,10,04,22,7.50
2015,12,10,04,23,7.50
2015,12,10,04,24,7.40
2015,12,10,04,25,7.40
2015,12,10,04,26,7.30
2015,12,10,04,27,7.20
2015,12,10,04,28,7.20
2015,12,10,04,29,7.20
2015,12,10,04,30,7.20
2015,12,10,04,31,7.10
2015,12,10,04,32,7.10
2015,12,10,04,33,7.10
2015,12,10,04,34,7.00
2015,12,10,04,35,7.00
2015,12,10,04,36,7.00
2015,12,10,04,37,7.00
2015,12,10,04,38,7.00
2015,12,10,04,39,7.00
2015,12,10,04,40,7.00
2015,12,10,04,41,7.10
2015,12,10,04,42,7.10
2015,12,10,04,43,7.10
2015,12,10,04,44,7.10
2015,12,10,04,45,7.20
2015,12,10,04,46,7.20
2015,12,10,04,47,7.20
2015,12,10,04,48,7.20
2015,12,10,04,49,7.20
2015,12,10,04,50,7.20
2015,12,10,04,51,7.20
2015,12,10,04,52,7.20
2015,12,10,04,53,7.20
2015,12,10,04,54,7.20
2015,12,10,04,55,7.20
2015,12,10,04,56,7.20
2015,12,10,04,57,7.20
2015,12,10,04,58,7.30
2015,12,10,04,59,7.40
2015,12,10,05,00,7.40
2015,12,10,05,01,7.50
2015,12,10,05,02,7.60
2015,12,10,05,03,7.70
2015,12,10,05,04,7.70
2015,12,10,05,05,7.80
2015,12,10,05,06,7.80
2015,12,10,05,07,7.90
2015,12,10,05,08,8.00
2015,12,10,05,09,8.00
2015,12,10,05,10,8.10
2015,12,10,05,11,8.10
2015,12,10,05,12,8.10
2015,12,10,05,13,8.10
2015,12,10,05,14,8.10
2015,12,10,05,15,8.10
2015,12,10,05,16,8.10
2015,12,10,05,17,8.10
2015,12,10,05,18,8.10
2015,12,10,05,19,8.10
2015,12,10,05,20,8.10
2015,12,10,05,21,8.10
2015,12,10,05,22,8.10
2015,12,10,05,23,8.10
2015,12,10,05,24,8.00
2015,12,10,05,25,8.00
2015,12,10,05,26,8.00
2015,12,10,05,27,8.00
2015,12,10,05,28,8.00
2015,12,10,05,29,8.00
2015,12,10,05,30,8.00
2015,12,10,05,31,8.00
2015,12,10,05,32,8.00
2015,12,10,05,33,7.90
2015,12,10,05,34,7.90
2015,12,10,05,35,7.90
2015,12,10,05,36,7.90
2015,12,10,05,37,7.90
2015,12,10,05,38,7.90
2015,12,10,05,39,7.90
2015,12,10,05,40,7.90
2015,12,10,05,41,7.90
2015,12,10,05,42,7.90
2015,12,10,05,43,7.90
2015,12,10,05,44,7.90
2015,12,10,05,45,7.90
2015,12,10,05,46,7.90
2015,12,10,05,47,7.90
2015,12,10,05,48,7.90
2015,12,10,05,49,7.90
2015,12,10,05,50,7.90
2015,12,10,05,51,7.90
2015,12,10,05,52,8.00
2015,12,10,05,53,8.00
2015,12,10,05,54,8.00
2015,12,10,05,55,8.00
2015,12,10,05,56,8.00
2015,12,10,05,57,8.00
2015,12,10,05,58,8.00
2015,12,10,05,59,8.00
2015,12,10,06,00,8.00
2015,12,10,06,01,8.00
2015,12,10,06,02,8.00
2015,12,10,06,03,8.00
2015,12,10,06,04,8.00
2015,12,10,06,05,8.00
2015,12,10,06,06,8.00
2015,12,10,06,07,8.10
2015,12,10,06,08,8.10
2015,12,10,06,09,8.10
2015,12,10,06,10,8.10
2015,12,10,06,11,8.10
2015,12,10,06,12,8.10
2015,12,10,06,13,8.10
2015,12,10,06,14,8.10
2015,12,10,06,15,8.10
2015,12,10,06,16,8.10
2015,12,10,06,17,8.10
2015,12,10,06,18,8.10
2015,12,10,06,19,8.20
2015,12,10,06,20,8.20
2015,12,10,06,21,8.20
2015,12,10,06,22,8.20
2015,12,10,06,23,8.20
2015,12,10,06,24,8.20
2015,12,10,06,25,8.20
2015,12,10,06,26,8.20
2015,12,10,06,27,8.20
2015,12,10,06,28,8.20
2015,12,10,06,29,8.20
2015,12,10,06,30,8.20
2015,12,10,06,31,8.20
2015,12,10,06,32,8.20
2015,12,10,06,33,8.20
2015,12,10,06,34,8.20
2015,12,10,06,35,8.20
2015,12,10,06,36,8.20
2015,12,10,06,37,8.20
2015,12,10,06,38,8.20
2015,12,10,06,39,8.20
2015,12,10,06,40,8.20
2015,12,10,06,41,8.20
2015,12,10,06,42,8.20
2015,12,10,06,43,8.20
2015,12,10,06,44,8.20
2015,12,10,06,45,8.20
2015,12,10,06,46,8.20
2015,12,10,06,47,8.30
2015,12,10,06,48,8.30
2015,12,10,06,49,8.30
2015,12,10,06,50,8.30
2015,12,10,06,51,8.40
2015,12,10,06,52,8.40
2015,12,10,06,53,8.40
2015,12,10,06,54,8.40
2015,12,10,06,55,8.50
2015,12,10,06,56,8.50
2015,12,10,06,57,8.50
2015,12,10,06,58,8.60
2015,12,10,06,59,8.60
2015,12,10,07,00,8.60
2015,12,10,07,01,8.70
2015,12,10,07,02,8.70
2015,12,10,07,03,8.70
2015,12,10,07,04,8.70
2015,12,10,07,05,8.70
2015,12,10,07,06,8.70
2015,12,10,07,07,8.70
2015,12,10,07,08,8.70
2015,12,10,07,09,8.70
2015,12,10,07,10,8.70
2015,12,10,07,11,8.70
2015,12,10,07,12,8.70
2015,12,10,07,13,8.70
2015,12,10,07,14,8.70
2015,12,10,07,15,8.70
2015,12,10,07,16,8.70
2015,12,10,07,17,8.70
2015,12,10,07,18,8.80
2015,12,10,07,19,8.80
2015,12,10,07,20,8.80
2015,12,10,07,21,8.80
2015,12,10,07,22,8.80
2015,12,10,07,23,8.80
2015,12,10,07,24,8.80
2015,12,10,07,25,8.80
2015,12,10,07,26,8.80
2015,12,10,07,27,8.80
2015,12,10,07,28,8.80
2015,12,10,07,29,8.80
2015,12,10,07,30,8.80
2015,12,10,07,31,8.80
2015,12,10,07,32,8.80
2015,12,10,07,33,8.80
2015,12,10,07,34,8.80
2015,12,10,07,35,8.80
2015,12,10,07,36,8.90
2015,12,10,07,37,8.90
2015,12,10,07,38,8.90
2015,12,10,07,39,8.90
2015,12,10,07,40,8.90
2015,12,10,07,41,8.90
2015,12,10,07,42,8.90
2015,12,10,07,43,8.90
2015,12,10,07,44,8.90
2015,12,10,07,45,8.90
2015,12,10,07,46,8.90
2015,12,10,07,47,8.90
2015,12,10,07,48,8.90
2015,12,10,07,49,8.90
2015,12,10,07,50,8.90
2015,12,10,07,51,8.90
2015,12,10,07,52,8.90
2015,12,10,07,53,8.90
2015,12,10,07,54,8.90
2015,12,10,07,55,8.90
2015,12,10,07,56,8.90
2015,12,10,07,57,8.90
2015,12,10,07,58,9.00
2015,12,10,07,59,9.00
2015,12,10,08,00,9.00
2015,12,10,08,01,8.90
2015,12,10,08,02,9.00
2015,12,10,08,03,9.00
2015,12,10,08,04,8.90
2015,12,10,08,05,8.90
2015,12,10,08,06,8.90
2015,12,10,08,07,8.90
2015,12,10,08,08,8.90
2015,12,10,08,09,8.90
2015,12,10,08,10,9.00
2015,12,10,08,11,9.00
2015,12,10,08,12,9.00
2015,12,10,08,13,9.00
2015,12,10,08,14,9.00
2015,12,10,08,15,9.10
2015,12,10,08,16,9.10
2015,12,10,08,17,9.10
2015,12,10,08,18,9.10
2015,12,10,08,19,9.10
2015,12,10,08,20,9.10
2015,12,10,08,21,9.10
2015,12,10,08,22,9.10
2015,12,10,08,23,9.20
2015,12,10,08,24,9.20
2015,12,10,08,25,9.20
2015,12,10,08,26,9.20
2015,12,10,08,27,9.30
2015,12,10,08,28,9.30
2015,12,10,08,29,9.30
2015,12,10,08,30,9.30
2015,12,10,08,31,9.30
2015,12,10,08,32,9.40
2015,12,10,08,33,9.40
2015,12,10,08,34,9.40
2015,12,10,08,35,9.40
2015,12,10,08,36,9.40
2015,12,10,08,37,9.40
2015,12,10,08,38,9.40
2015,12,10,08,39,9.30
2015,12,10,08,40,9.30
2015,12,10,08,41,9.30
2015,12,10,08,42,9.30
2015,12,10,08,43,9.30
2015,12,10,08,44,9.30
2015,12,10,08,45,9.30
2015,12,10,08,46,9.20
2015,12,10,08,47,9.20
2015,12,10,08,48,9.20
2015,12,10,08,49,9.20
2015,12,10,08,50,9.20
2015,12,10,08,51,9.20
2015,12,10,08,52,9.20
2015,12,10,08,53,9.20
2015,12,10,08,54,9.20
2015,12,10,08,55,9.20
2015,12,10,08,56,9.20
2015,12,10,08,57,9.20
2015,12,10,08,58,9.30
2015,12,10,08,59,9.30
2015,12,10,09,00,9.30
2015,12,10,09,01,9.20
2015,12,10,09,02,9.20
2015,12,10,09,03,9.20
2015,12,10,09,04,9.20
2015,12,10,09,05,9.20
2015,12,10,09,06,9.10
2015,12,10,09,07,9.10
2015,12,10,09,08,9.10
2015,12,10,09,09,9.10
2015,12,10,09,10,9.00
2015,12,10,09,11,9.00
2015,12,10,09,12,9.10
2015,12,10,09,13,9.10
2015,12,10,09,14,9.10
2015,12,10,09,15,9.10
2015,12,10,09,16,9.10
2015,12,10,09,17,9.10
2015,12,10,09,18,9.10
2015,12,10,09,19,9.20
2015,12,10,09,20,9.20
2015,12,10,09,21,9.20
2015,12,10,09,22,9.20
2015,12,10,09,23,9.20
2015,12,10,09,24,9.20
2015,12,10,09,25,9.30
2015,12,10,09,26,9.30
2015,12,10,09,27,9.30
2015,12,10,09,28,9.30
2015,12,10,09,29,9.30
2015,12,10,09,30,9.30
2015,12,10,09,31,9.30
2015,12,10,09,32,9.30
2015,12,10,09,33,9.30
2015,12,10,09,34,9.30
2015,12,10,09,35,9.30
2015,12,10,09,36,9.30
2015,12,10,09,37,9.30
2015,12,10,09,38,9.30
2015,12,10,09,39,9.30
2015,12,10,09,40,9.30
2015,12,10,09,41,9.30
2015,12,10,09,42,9.30
2015,12,10,09,43,9.30
2015,12,10,09,44,9.30
2015,12,10,09,45,9.30
2015,12,10,09,46,9.30
2015,12,10,09,47,9.30
2015,12,10,09,48,9.30
2015,12,10,09,49,9.30
2015,12,10,09,50,9.30
2015,12,10,09,51,9.30
2015,12,10,09,52,9.30
2015,12,10,09,53,9.30
2015,12,10,09,54,9.20
2015,12,10,09,55,9.20
2015,12,10,09,56,9.20
2015,12,10,09,57,9.20
2015,12,10,09,58,9.20
2015,12,10,09,59,9.20
2015,12,10,10,00,9.10
2015,12,10,10,01,9.10
2015,12,10,10,02,9.10
2015,12,10,10,03,9.10
2015,12,10,10,04,9.10
2015,12,10,10,05,9.10
2015,12,10,10,06,9.00
2015,12,10,10,07,9.00
2015,12,10,10,08,8.90
2015,12,10,10,09,8.90
2015,12,10,10,10,8.80
2015,12,10,10,11,8.70
2015,12,10,10,12,8.70
2015,12,10,10,13,8.60
2015,12,10,10,14,8.50
2015,12,10,10,15,8.50
2015,12,10,10,16,8.40
2015,12,10,10,17,8.30
2015,12,10,10,18,8.30
2015,12,10,10,19,8.20
2015,12,10,10,20,8.20
2015,12,10,10,21,8.20
2015,12,10,10,22,8.20
2015,12,10,10,23,8.20
2015,12,10,10,24,8.20
2015,12,10,10,25,8.20
2015,12,10,10,26,8.20
2015,12,10,10,27,8.20
2015,12,10,10,28,8.20
2015,12,10,10,29,8.20
2015,12,10,10,30,8.20
2015,12,10,10,31,8.10
2015,12,10,10,32,8.10
2015,12,10,10,33,8.10
2015,12,10,10,34,8.10
2015,12,10,10,35,8.10
2015,12,10,10,36,8.10
2015,12,10,10,37,8.10
2015,12,10,10,38,8.10
2015,12,10,10,39,8.10
2015,12,10,10,40,8.10
2015,12,10,10,41,8.10
2015,12,10,10,42,8.10
2015,12,10,10,43,8.10
2015,12,10,10,44,8.10
2015,12,10,10,45,8.10
2015,12,10,10,46,8.10
2015,12,10,10,47,8.10
2015,12,10,10,48,8.10
2015,12,10,10,49,8.10
2015,12,10,10,50,8.10
2015,12,10,10,51,8.10
2015,12,10,10,52,8.10
2015,12,10,10,53,8.10
2015,12,10,10,54,8.20
2015,12,10,10,55,8.20
2015,12,10,10,56,8.20
2015,12,10,10,57,8.20
2015,12,10,10,58,8.20
2015,12,10,10,59,8.20
2015,12,10,11,00,8.20
2015,12,10,11,01,8.30
2015,12,10,11,02,8.30
2015,12,10,11,03,8.30
2015,12,10,11,04,8.30
2015,12,10,11,05,8.30
2015,12,10,11,06,8.30
2015,12,10,11,07,8.30
2015,12,10,11,08,8.30
2015,12,10,11,09,8.30
2015,12,10,11,10,8.20
2015,12,10,11,11,8.20
2015,12,10,11,12,8.20
2015,12,10,11,13,8.20
2015,12,10,11,14,8.20
2015,12,10,11,15,8.20
2015,12,10,11,16,8.20
2015,12,10,11,17,8.20
2015,12,10,11,18,8.20
2015,12,10,11,19,8.20
2015,12,10,11,20,8.20
2015,12,10,11,21,8.20
2015,12,10,11,22,8.20
2015,12,10,11,23,8.20
2015,12,10,11,24,8.20
2015,12,10,11,25,8.20
2015,12,10,11,26,8.20
2015,12,10,11,27,8.20
2015,12,10,11,28,8.20
2015,12,10,11,29,8.20
2015,12,10,11,30,8.20
2015,12,10,11,31,8.30
2015,12,10,11,32,8.20
2015,12,10,11,33,8.20
2015,12,10,11,34,8.20
2015,12,10,11,35,8.20
2015,12,10,11,36,8.20
2015,12,10,11,37,8.20
2015,12,10,11,38,8.20
2015,12,10,11,39,8.20
2015,12,10,11,40,8.20
2015,12,10,11,41,8.20
2015,12,10,11,42,8.20
2015,12,10,11,43,8.20
2015,12,10,11,44,8.20
2015,12,10,11,45,8.20
2015,12,10,11,46,8.20
2015,12,10,11,47,8.20
2015,12,10,11,48,8.20
2015,12,10,11,49,8.20
2015,12,10,11,50,8.20
2015,12,10,11,51,8.20
2015,12,10,11,52,8.20
2015,12,10,11,53,8.20
2015,12,10,11,54,8.20
2015,12,10,11,55,8.20
2015,12,10,11,56,8.20
2015,12,10,11,57,8.20
2015,12,10,11,58,8.20
2015,12,10,11,59,8.20
2015,12,10,12,00,8.20
2015,12,10,12,01,8.30
2015,12,10,12,02,8.30
2015,12,10,12,03,8.30
2015,12,10,12,04,8.30
2015,12,10,12,05,8.30
2015,12,10,12,06,8.40
2015,12,10,12,07,8.40
2015,12,10,12,08,8.40
2015,12,10,12,09,8.40
2015,12,10,12,10,8.40
2015,12,10,12,11,8.40
2015,12,10,12,12,8.40
2015,12,10,12,13,8.40
2015,12,10,12,14,8.40
2015,12,10,12,15,8.50
2015,12,10,12,16,8.50
2015,12,10,12,17,8.50
2015,12,10,12,18,8.50
2015,12,10,12,19,8.60
2015,12,10,12,20,8.60
2015,12,10,12,21,8.60
2015,12,10,12,22,8.70
2015,12,10,12,23,8.80
2015,12,10,12,24,8.80
2015,12,10,12,25,8.80
2015,12,10,12,26,8.90
2015,12,10,12,27,8.90
2015,12,10,12,28,9.00
2015,12,10,12,29,9.00
2015,12,10,12,30,9.00
2015,12,10,12,31,9.00
2015,12,10,12,32,9.00
2015,12,10,12,33,9.10
2015,12,10,12,34,9.10
2015,12,10,12,35,9.10
2015,12,10,12,36,9.10
2015,12,10,12,37,9.10
2015,12,10,12,38,9.10
2015,12,10,12,39,9.10
2015,12,10,12,40,9.10
2015,12,10,12,41,9.10
2015,12,10,12,42,9.00
2015,12,10,12,43,9.00
2015,12,10,12,44,9.00
2015,12,10,12,45,9.00
2015,12,10,12,46,8.90
2015,12,10,12,47,8.90
2015,12,10,12,48,8.90
2015,12,10,12,49,8.90
2015,12,10,12,50,8.90
2015,12,10,12,51,8.80
2015,12,10,12,52,8.80
2015,12,10,12,53,8.80
2015,12,10,12,54,8.80
2015,12,10,12,55,8.90
2015,12,10,12,56,8.90
2015,12,10,12,57,8.90
2015,12,10,12,58,8.90
2015,12,10,12,59,9.00
2015,12,10,13,00,9.00
2015,12,10,13,01,9.10
2015,12,10,13,02,9.10
2015,12,10,13,03,9.10
2015,12,10,13,04,9.20
2015,12,10,13,05,9.20
2015,12,10,13,06,9.20
2015,12,10,13,07,9.20
2015,12,10,13,08,9.10
2015,12,10,13,09,9.10
2015,12,10,13,10,9.10
2015,12,10,13,11,9.00
2015,12,10,13,12,9.00
2015,12,10,13,13,8.90
2015,12,10,13,14,8.90
2015,12,10,13,15,8.80
2015,12,10,13,16,8.80
2015,12,10,13,17,8.80
2015,12,10,13,18,8.80
2015,12,10,13,19,8.80
2015,12,10,13,20,8.80
2015,12,10,13,21,8.80
2015,12,10,13,22,8.80
2015,12,10,13,23,8.80
2015,12,10,13,24,8.80
2015,12,10,13,25,8.80
2015,12,10,13,26,8.80
2015,12,10,13,27,8.90
2015,12,10,13,28,9.00
2015,12,10,13,29,9.00
2015,12,10,13,30,9.00
2015,12,10,13,31,9.00
2015,12,10,13,32,9.00
2015,12,10,13,33,9.00
2015,12,10,13,34,9.00
2015,12,10,13,35,9.00
2015,12,10,13,36,9.00
2015,12,10,13,37,9.00
2015,12,10,13,38,9.00
2015,12,10,13,39,9.10
2015,12,10,13,40,9.00
2015,12,10,13,41,9.00
2015,12,10,13,42,9.00
2015,12,10,13,43,9.00
2015,12,10,13,44,9.10
2015,12,10,13,45,9.10
2015,12,10,13,46,9.20
2015,12,10,13,47,9.20
2015,12,10,13,48,9.30
2015,12,10,13,49,9.30
2015,12,10,13,50,9.30
2015,12,10,13,51,9.40
2015,12,10,13,52,9.50
2015,12,10,13,53,9.50
2015,12,10,13,54,9.50
2015,12,10,13,55,9.60
2015,12,10,13,56,9.60
2015,12,10,13,57,9.60
2015,12,10,13,58,9.60
2015,12,10,13,59,9.60
2015,12,10,14,00,9.60
2015,12,10,14,01,9.60
2015,12,10,14,02,9.70
2015,12,10,14,03,9.70
2015,12,10,14,04,9.70
2015,12,10,14,05,9.80
2015,12,10,14,06,9.80
2015,12,10,14,07,9.80
2015,12,10,14,08,9.80
2015,12,10,14,09,9.80
2015,12,10,14,10,9.90
2015,12,10,14,11,9.90
2015,12,10,14,12,10.00
2015,12,10,14,13,10.10
2015,12,10,14,14,10.10
2015,12,10,14,15,10.10
2015,12,10,14,16,10.20
2015,12,10,14,17,10.20
2015,12,10,14,18,10.20
2015,12,10,14,19,10.20
2015,12,10,14,20,10.20
2015,12,10,14,21,10.20
2015,12,10,14,22,10.20
2015,12,10,14,23,10.30
2015,12,10,14,24,10.20
2015,12,10,14,25,10.20
2015,12,10,14,26,10.20
2015,12,10,14,27,10.20
2015,12,10,14,28,10.20
2015,12,10,14,29,10.20
2015,12,10,14,30,10.20
2015,12,10,14,31,10.20
2015,12,10,14,32,10.20
2015,12,10,14,33,10.20
2015,12,10,14,34,10.10
2015,12,10,14,35,10.10
2015,12,10,14,36,10.10
2015,12,10,14,37,10.10
2015,12,10,14,38,10.10
2015,12,10,14,39,10.10
2015,12,10,14,40,10.10
2015,12,10,14,41,10.10
2015,12,10,14,42,10.10
2015,12,10,14,43,10.10
2015,12,10,14,44,10.10
2015,12,10,14,45,10.00
2015,12,10,14,46,10.00
2015,12,10,14,47,10.10
2015,12,10,14,48,10.10
2015,12,10,14,49,10.10
2015,12,10,14,50,10.00
2015,12,10,14,51,10.00
2015,12,10,14,52,10.10
2015,12,10,14,53,10.10
2015,12,10,14,54,10.20
2015,12,10,14,55,10.20
2015,12,10,14,56,10.20
2015,12,10,14,57,10.20
2015,12,10,14,58,10.20
2015,12,10,14,59,10.20
2015,12,10,15,00,10.20
2015,12,10,15,01,10.10
2015,12,10,15,02,10.10
2015,12,10,15,03,10.10
2015,12,10,15,04,10.10
2015,12,10,15,05,10.20
2015,12,10,15,06,10.30
2015,12,10,15,07,10.30
2015,12,10,15,08,10.30
2015,12,10,15,09,10.30
2015,12,10,15,10,10.30
2015,12,10,15,11,10.30
2015,12,10,15,12,10.30
2015,12,10,15,13,10.30
2015,12,10,15,14,10.30
2015,12,10,15,15,10.30
2015,12,10,15,16,10.30
2015,12,10,15,17,10.30
2015,12,10,15,18,10.30
2015,12,10,15,19,10.20
2015,12,10,15,20,10.20
2015,12,10,15,21,10.30
2015,12,10,15,22,10.20
2015,12,10,15,23,10.20
2015,12,10,15,24,10.20
2015,12,10,15,25,10.20
2015,12,10,15,26,10.20
2015,12,10,15,27,10.20
2015,12,10,15,28,10.20
2015,12,10,15,29,10.20
2015,12,10,15,30,10.10
2015,12,10,15,31,10.10
2015,12,10,15,32,10.10
2015,12,10,15,33,10.10
2015,12,10,15,34,10.00
2015,12,10,15,35,10.00
2015,12,10,15,36,9.90
2015,12,10,15,37,9.90
2015,12,10,15,38,9.80
2015,12,10,15,39,9.80
2015,12,10,15,40,9.80
2015,12,10,15,41,9.70
2015,12,10,15,42,9.70
2015,12,10,15,43,9.70
2015,12,10,15,44,9.70
2015,12,10,15,45,9.70
2015,12,10,15,46,9.70
2015,12,10,15,47,9.70
2015,12,10,15,48,9.70
2015,12,10,15,49,9.70
2015,12,10,15,50,9.80
2015,12,10,15,51,9.80
2015,12,10,15,52,9.90
2015,12,10,15,53,10.00
2015,12,10,15,54,10.10
2015,12,10,15,55,10.20
2015,12,10,15,56,10.20
2015,12,10,15,57,10.20
2015,12,10,15,58,10.20
2015,12,10,15,59,10.20
2015,12,10,16,00,10.20
2015,12,10,16,01,10.20
2015,12,10,16,02,10.20
2015,12,10,16,03,10.10
2015,12,10,16,04,10.10
2015,12,10,16,05,10.00
2015,12,10,16,06,10.00
2015,12,10,16,07,9.90
2015,12,10,16,08,9.80
2015,12,10,16,09,9.70
2015,12,10,16,10,9.70
2015,12,10,16,11,9.60
2015,12,10,16,12,9.60
2015,12,10,16,13,9.50
2015,12,10,16,14,9.50
2015,12,10,16,15,9.40
2015,12,10,16,16,9.40
2015,12,10,16,17,9.30
2015,12,10,16,18,9.30
2015,12,10,16,19,9.30
2015,12,10,16,20,9.30
2015,12,10,16,21,9.30
2015,12,10,16,22,9.20
2015,12,10,16,23,9.20
2015,12,10,16,24,9.20
2015,12,10,16,25,9.20
2015,12,10,16,26,9.10
2015,12,10,16,27,9.10
2015,12,10,16,28,9.10
2015,12,10,16,29,9.10
2015,12,10,16,30,9.10
2015,12,10,16,31,9.00
2015,12,10,16,32,9.00
2015,12,10,16,33,9.00
2015,12,10,16,34,8.90
2015,12,10,16,35,8.90
2015,12,10,16,36,8.90
2015,12,10,16,37,8.90
2015,12,10,16,38,8.90
2015,12,10,16,39,8.90
2015,12,10,16,40,8.90
2015,12,10,16,41,8.80
2015,12,10,16,42,8.80
2015,12,10,16,43,8.80
2015,12,10,16,44,8.80
2015,12,10,16,45,8.80
2015,12,10,16,46,8.80
2015,12,10,16,47,8.80
2015,12,10,16,48,8.70
2015,12,10,16,49,8.70
2015,12,10,16,50,8.60
2015,12,10,16,51,8.50
2015,12,10,16,52,8.50
2015,12,10,16,53,8.40
2015,12,10,16,54,8.40
2015,12,10,16,55,8.30
2015,12,10,16,56,8.30
2015,12,10,16,57,8.30
2015,12,10,16,58,8.20
2015,12,10,16,59,8.20
2015,12,10,17,00,8.10
2015,12,10,17,01,8.10
2015,12,10,17,02,8.10
2015,12,10,17,03,8.10
2015,12,10,17,04,8.10
2015,12,10,17,05,8.10
2015,12,10,17,06,8.10
2015,12,10,17,07,8.10
2015,12,10,17,08,8.20
2015,12,10,17,09,8.20
2015,12,10,17,10,8.30
2015,12,10,17,11,8.30
2015,12,10,17,12,8.30
2015,12,10,17,13,8.30
2015,12,10,17,14,8.30
2015,12,10,17,15,8.30
2015,12,10,17,16,8.40
2015,12,10,17,17,8.40
2015,12,10,17,18,8.40
2015,12,10,17,19,8.40
2015,12,10,17,20,8.40
2015,12,10,17,21,8.40
2015,12,10,17,22,8.40
2015,12,10,17,23,8.40
2015,12,10,17,24,8.40
2015,12,10,17,25,8.40
2015,12,10,17,26,8.40
2015,12,10,17,27,8.40
2015,12,10,17,28,8.30
2015,12,10,17,29,8.30
2015,12,10,17,30,8.30
2015,12,10,17,31,8.30
2015,12,10,17,32,8.40
2015,12,10,17,33,8.40
2015,12,10,17,34,8.40
2015,12,10,17,35,8.40
2015,12,10,17,36,8.40
2015,12,10,17,37,8.40
2015,12,10,17,38,8.40
2015,12,10,17,39,8.30
2015,12,10,17,40,8.30
2015,12,10,17,41,8.30
2015,12,10,17,42,8.30
2015,12,10,17,43,8.20
2015,12,10,17,44,8.20
2015,12,10,17,45,8.20
2015,12,10,17,46,8.20
2015,12,10,17,47,8.30
2015,12,10,17,48,8.20
2015,12,10,17,49,8.20
2015,12,10,17,50,8.20
2015,12,10,17,51,8.20
2015,12,10,17,52,8.20
2015,12,10,17,53,8.20
2015,12,10,17,54,8.20
2015,12,10,17,55,8.20
2015,12,10,17,56,8.20
2015,12,10,17,57,8.20
2015,12,10,17,58,8.20
2015,12,10,17,59,8.20
2015,12,10,18,00,8.20
2015,12,10,18,01,8.20
2015,12,10,18,02,8.10
2015,12,10,18,03,8.10
2015,12,10,18,04,8.10
2015,12,10,18,05,8.10